When you browse on this site, cookies collect data to enhance your experience and personalize the content and advertising you see.
Visit our Privacy Policy to learn more. By continuing to use the site, you agree to this use of cookies and data.
  • In Latvia
  • List of Countries
  • For 7 days
  • Water Temperature
  • Satellite Maps
  • Weather Map
  • Weather Widgets
  • user-avatar
    Login

    Hourly Weather Varfolomeevka

    Today, 24 June, Monday

    Time Temperature Precipitation Wind Pressure Humidity
    00:00 +23°C° 0 mm 0 mps 759 mmHg 42%
    01:00 +25°C° 0 mm 1 mps 759 mmHg 41%
    02:00 +25°C° 0 mm 1 mps 759 mmHg 40%
    03:00 +25°C° 0 mm 2 mps 759 mmHg 42%
    04:00 +27°C° 0 mm 2 mps 759 mmHg 40%
    05:00 +28°C° 0 mm 1 mps 759 mmHg 38%
    06:00 +30°C° 0 mm 1 mps 759 mmHg 36%
    07:00 +32°C° 0 mm 1 mps 760 mmHg 33%
    08:00 +33°C° 0 mm 1 mps 760 mmHg 30%
    09:00 +33°C° 0 mm 0 mps 760 mmHg 26%
    10:00 +36°C° 0 mm 1 mps 759 mmHg 25%
    11:00 +36°C° 0 mm 1 mps 759 mmHg 23%
    12:00 +37°C° 0 mm 1 mps 759 mmHg 21%
    13:00 +37°C° 0 mm 1 mps 759 mmHg 21%
    14:00 +38°C° 0 mm 2 mps 759 mmHg 21%
    15:00 +39°C° 0 mm 3 mps 759 mmHg 20%
    16:00 +38°C° 0 mm 3 mps 758 mmHg 23%
    17:00 +37°C° 0 mm 4 mps 758 mmHg 26%
    18:00 +36°C° 0 mm 5 mps 758 mmHg 28%
    19:00 +34°C° 0 mm 4 mps 758 mmHg 32%
    20:00 +33°C° 0 mm 4 mps 758 mmHg 36%
    21:00 +30°C° 0 mm 3 mps 759 mmHg 40%
    22:00 +29°C° 0 mm 3 mps 759 mmHg 42%
    23:00 +28°C° 0 mm 3 mps 758 mmHg 44%

    Tomorrow, 25 June, Tuesday

    Time Temperature Precipitation Wind Pressure Humidity
    00:00 +28°C° 0 mm 3 mps 758 mmHg 46%
    01:00 +27°C° 0 mm 2 mps 758 mmHg 50%
    02:00 +26°C° 0 mm 2 mps 758 mmHg 53%
    03:00 +25°C° 0 mm 2 mps 759 mmHg 57%
    04:00 +26°C° 0 mm 3 mps 759 mmHg 59%
    05:00 +26°C° 0 mm 3 mps 759 mmHg 61%
    06:00 +26°C° 0 mm 4 mps 759 mmHg 63%
    07:00 +27°C° 0 mm 5 mps 759 mmHg 60%
    08:00 +28°C° 0 mm 6 mps 759 mmHg 57%
    09:00 +28°C° 0 mm 7 mps 759 mmHg 54%
    10:00 +29°C° 0 mm 6 mps 759 mmHg 52%
    11:00 +29°C° 0 mm 5 mps 759 mmHg 51%
    12:00 +30°C° 0 mm 4 mps 759 mmHg 50%
    13:00 +33°C° 0 mm 7 mps 759 mmHg 43%
    14:00 +32°C° 0 mm 7 mps 759 mmHg 44%
    15:00 +30°C° 0 mm 7 mps 759 mmHg 45%
    16:00 +30°C° 0 mm 7 mps 759 mmHg 44%
    17:00 +30°C° 0 mm 6 mps 760 mmHg 43%
    18:00 +29°C° 0 mm 6 mps 760 mmHg 41%
    19:00 +28°C° 0 mm 7 mps 760 mmHg 42%
    20:00 +26°C° 0 mm 7 mps 761 mmHg 44%
    21:00 +23°C° 0 mm 7 mps 761 mmHg 45%
    22:00 +22°C° 0 mm 7 mps 761 mmHg 46%
    23:00 +21°C° 0 mm 6 mps 762 mmHg 47%

    Day after tomorrow, 26 June, Wednesday

    Time Temperature Precipitation Wind Pressure Humidity
    00:00 +20°C° 0 mm 6 mps 762 mmHg 48%
    01:00 +19°C° 0 mm 5 mps 762 mmHg 52%
    02:00 +18°C° 0 mm 4 mps 762 mmHg 56%
    03:00 +17°C° 0 mm 4 mps 762 mmHg 60%
    04:00 +18°C° 0 mm 4 mps 762 mmHg 59%
    05:00 +19°C° 0 mm 4 mps 763 mmHg 57%
    06:00 +19°C° 0 mm 4 mps 763 mmHg 55%
    07:00 +21°C° 0 mm 5 mps 763 mmHg 50%
    08:00 +22°C° 0 mm 5 mps 763 mmHg 46%
    09:00 +25°C° 0 mm 5 mps 763 mmHg 41%
    10:00 +25°C° 0 mm 5 mps 763 mmHg 38%
    11:00 +26°C° 0 mm 6 mps 762 mmHg 35%
    12:00 +26°C° 0 mm 6 mps 762 mmHg 32%
    13:00 +27°C° 0 mm 6 mps 762 mmHg 31%
    14:00 +27°C° 0 mm 6 mps 762 mmHg 31%
    15:00 +27°C° 0 mm 6 mps 761 mmHg 30%
    16:00 +26°C° 0 mm 6 mps 761 mmHg 33%
    17:00 +24°C° 0 mm 6 mps 761 mmHg 35%
    18:00 +23°C° 0 mm 6 mps 761 mmHg 37%
    19:00 +22°C° 0 mm 5 mps 761 mmHg 40%
    20:00 +21°C° 0 mm 4 mps 761 mmHg 44%
    21:00 +20°C° 0 mm 3 mps 761 mmHg 47%
    22:00 +19°C° 0 mm 3 mps 761 mmHg 49%
    23:00 +18°C° 0 mm 2 mps 760 mmHg 50%

    27 June, Thursday

    Time Temperature Precipitation Wind Pressure Humidity
    00:00 +18°C° 0 mm 2 mps 760 mmHg 52%
    01:00 +17°C° 0 mm 2 mps 760 mmHg 55%
    02:00 +16°C° 0 mm 2 mps 760 mmHg 58%
    03:00 +15°C° 0 mm 1 mps 759 mmHg 61%
    04:00 +16°C° 0 mm 1 mps 759 mmHg 59%
    05:00 +19°C° 0 mm 1 mps 759 mmHg 56%
    06:00 +20°C° 0 mm 1 mps 759 mmHg 53%
    07:00 +20°C° 0 mm 2 mps 759 mmHg 51%
    08:00 +21°C° 0 mm 3 mps 758 mmHg 49%
    09:00 +21°C° 0 mm 3 mps 758 mmHg 47%
    10:00 +22°C° 0 mm 4 mps 758 mmHg 45%
    11:00 +23°C° 0 mm 4 mps 757 mmHg 43%
    12:00 +25°C° 0 mm 4 mps 757 mmHg 41%
    13:00 +25°C° 0 mm 5 mps 756 mmHg 40%
    14:00 +26°C° 0 mm 5 mps 756 mmHg 39%
    15:00 +26°C° 0 mm 6 mps 755 mmHg 38%
    16:00 +26°C° 0 mm 6 mps 755 mmHg 40%
    17:00 +25°C° 0 mm 5 mps 755 mmHg 42%
    18:00 +25°C° 0 mm 5 mps 754 mmHg 44%
    19:00 +22°C° 0 mm 4 mps 754 mmHg 50%
    20:00 +21°C° 0 mm 3 mps 754 mmHg 56%
    21:00 +19°C° 0 mm 2 mps 754 mmHg 62%
    22:00 +20°C° 0 mm 1 mps 754 mmHg 64%
    23:00 +19°C° 0 mm 1 mps 754 mmHg 67%

    28 June, Friday

    Time Temperature Precipitation Wind Pressure Humidity
    00:00 +18°C° 0 mm 1 mps 753 mmHg 69%
    01:00 +18°C° 0 mm 1 mps 753 mmHg 71%
    02:00 +16°C° 0 mm 1 mps 753 mmHg 72%
    03:00 +16°C° 0 mm 1 mps 753 mmHg 74%
    04:00 +18°C° 0 mm 1 mps 752 mmHg 70%
    05:00 +18°C° 0 mm 2 mps 752 mmHg 66%
    06:00 +19°C° 0 mm 2 mps 752 mmHg 61%
    07:00 +21°C° 0 mm 3 mps 752 mmHg 57%
    08:00 +24°C° 0 mm 3 mps 752 mmHg 52%
    09:00 +25°C° 0 mm 4 mps 751 mmHg 47%
    10:00 +27°C° 0 mm 4 mps 751 mmHg 43%
    11:00 +28°C° 0 mm 5 mps 750 mmHg 39%
    12:00 +30°C° 0 mm 5 mps 750 mmHg 35%
    13:00 +32°C° 0 mm 5 mps 749 mmHg 32%
    14:00 +33°C° 0 mm 6 mps 749 mmHg 28%
    15:00 +33°C° 0 mm 6 mps 748 mmHg 25%
    16:00 +33°C° 0 mm 5 mps 747 mmHg 26%
    17:00 +34°C° 0 mm 4 mps 747 mmHg 26%
    18:00 +34°C° 0 mm 3 mps 747 mmHg 27%
    19:00 +32°C° 0.2 mm 4 mps 746 mmHg 32%
    20:00 +29°C° 0.2 mm 4 mps 746 mmHg 38%
    21:00 +27°C° 0.2 mm 5 mps 746 mmHg 44%
    22:00 +26°C° 0.3 mm 6 mps 746 mmHg 50%
    23:00 +26°C° 0.3 mm 8 mps 746 mmHg 56%

    29 June, Saturday

    Time Temperature Precipitation Wind Pressure Humidity
    00:00 +24°C° 0.3 mm 9 mps 746 mmHg 63%
    01:00 +23°C° 0.9 mm 9 mps 746 mmHg 68%
    02:00 +22°C° 0.9 mm 8 mps 746 mmHg 74%
    03:00 +21°C° 0.9 mm 8 mps 746 mmHg 80%
    04:00 +22°C° 0.3 mm 8 mps 745 mmHg 73%
    05:00 +22°C° 0.3 mm 7 mps 745 mmHg 66%
    06:00 +23°C° 0.3 mm 7 mps 745 mmHg 59%
    07:00 +24°C° 0.1 mm 7 mps 745 mmHg 58%
    08:00 +24°C° 0.1 mm 7 mps 745 mmHg 57%
    09:00 +26°C° 0.1 mm 7 mps 745 mmHg 56%
    10:00 +27°C° 0.2 mm 7 mps 745 mmHg 52%
    11:00 +27°C° 0.2 mm 6 mps 745 mmHg 48%
    12:00 +28°C° 0.2 mm 6 mps 746 mmHg 43%
    13:00 +28°C° 0 mm 7 mps 746 mmHg 39%
    14:00 +29°C° 0 mm 7 mps 746 mmHg 34%
    15:00 +29°C° 0 mm 8 mps 746 mmHg 30%
    16:00 +29°C° 0 mm 8 mps 746 mmHg 31%
    17:00 +28°C° 0 mm 7 mps 747 mmHg 31%
    18:00 +27°C° 0 mm 7 mps 747 mmHg 32%
    19:00 +26°C° 0 mm 6 mps 747 mmHg 35%
    20:00 +23°C° 0 mm 5 mps 748 mmHg 39%
    21:00 +22°C° 0 mm 4 mps 748 mmHg 42%
    22:00 +21°C° 0 mm 3 mps 748 mmHg 45%
    23:00 +20°C° 0 mm 3 mps 748 mmHg 48%
    Show more